TimeMST,TemperatureF,Dew PointF,Humidity,Sea Level PressureIn,VisibilityMPH,Wind Direction,Wind SpeedMPH,Gust SpeedMPH,PrecipitationIn,Events,Conditions,WindDirDegrees,DateUTC
12:53 AM,30.9,21.9,69,29.86,10.0,South,19.6,26.5,N/A,,Overcast,180,2012-12-07 07:53:00
1:53 AM,30.9,21.0,67,29.84,10.0,South,19.6,-,N/A,,Mostly Cloudy,190,2012-12-07 08:53:00
2:53 AM,30.9,19.0,61,29.81,10.0,South,17.3,-,N/A,,Mostly Cloudy,180,2012-12-07 09:53:00
3:53 AM,32.0,17.1,54,29.80,10.0,South,19.6,-,N/A,,Clear,190,2012-12-07 10:53:00
4:53 AM,32.0,16.0,52,29.81,10.0,SSW,19.6,-,N/A,,Clear,210,2012-12-07 11:53:00
5:53 AM,30.9,16.0,54,29.85,10.0,SW,10.4,-,N/A,,Clear,220,2012-12-07 12:53:00
6:53 AM,30.0,17.1,59,29.88,10.0,West,8.1,-,N/A,,Mostly Cloudy,270,2012-12-07 13:53:00
7:53 AM,30.9,23.0,72,29.92,10.0,NNW,17.3,-,N/A,,Clear,330,2012-12-07 14:53:00
8:53 AM,34.0,21.0,59,29.93,10.0,NNW,18.4,-,N/A,,Overcast,330,2012-12-07 15:53:00
9:53 AM,37.0,25.0,62,29.93,10.0,NNW,13.8,-,N/A,,Overcast,340,2012-12-07 16:53:00
10:53 AM,39.9,24.1,53,29.92,10.0,NW,18.4,-,N/A,,Partly Cloudy,310,2012-12-07 17:53:00
11:53 AM,41.0,21.9,47,29.89,10.0,NNW,18.4,-,N/A,,Clear,330,2012-12-07 18:53:00
12:53 PM,41.0,21.0,45,29.89,10.0,NNW,15.0,24.2,N/A,,Scattered Clouds,330,2012-12-07 19:53:00
1:53 PM,39.0,19.9,46,29.91,10.0,NNW,12.7,-,N/A,,Clear,330,2012-12-07 20:53:00
2:53 PM,37.9,21.0,51,29.92,10.0,NNW,12.7,-,N/A,,Mostly Cloudy,340,2012-12-07 21:53:00
3:53 PM,35.1,19.9,54,29.94,10.0,North,6.9,-,N/A,,Scattered Clouds,360,2012-12-07 22:53:00
4:53 PM,28.9,19.0,67,29.95,10.0,NNE,8.1,-,N/A,,Partly Cloudy,20,2012-12-07 23:53:00
5:53 PM,28.4,17.6,64,29.90,10.0,North,9.2,-,N/A,,Partly Cloudy,10,2012-12-08 00:53:00
6:53 PM,19.4,15.8,86,29.92,10.0,SW,3.5,-,N/A,,Clear,230,2012-12-08 01:53:00
7:53 PM,15.1,10.9,84,30.04,10.0,SSW,3.5,-,N/A,,Clear,200,2012-12-08 02:53:00
8:53 PM,16.0,10.9,81,30.03,10.0,Calm,Calm,-,N/A,,Clear,0,2012-12-08 03:53:00
9:53 PM,15.1,10.9,84,30.02,10.0,West,3.5,-,N/A,,Clear,280,2012-12-08 04:53:00
10:53 PM,14.0,8.1,77,30.00,10.0,Calm,Calm,-,N/A,,Clear,0,2012-12-08 05:53:00
11:53 PM,18.0,12.9,81,29.95,10.0,Calm,Calm,-,N/A,,Clear,0,2012-12-08 06:53:00